Retour au catalogue

COSMOS 2251 DEB

ActifLEO
NORAD 36060·DEBRIS·🇷🇺 Russia

Lancé Jun 16, 1993 depuis Plesetsk Cosmodrome

Loading…

Prochains Passages (prochaines 24 heures)

TLE

FraisSource: Space-Track

Époque: Sep 14, 2026, 05:11 UTC

1 36060U 93036AXX 26257.21626540  .00000547  00000-0  17287-3 0  9998
2 36060  74.0270  83.4510 0014562 119.0923 241.1693 14.42508937889814

Suivez COSMOS 2251 DEB en temps réel avec AllMySat

Download on the App Store